| time (UTC) | temp F | wind direction | speed MPH | gust MPH | rain 1hr in | rain 24hr in | rain mn in | humidity % | barometer mb |
| 20260505153136 | 80 | 194 | 6.0 | 14.0 | 0.00 | 0.00 | 0.00 | 38 | 1009.0 |
| 20260505152136 | 80 | 223 | 2.0 | 13.0 | 0.00 | 0.00 | 0.00 | 40 | 1009.0 |
| 20260505151136 | 79 | 223 | 1.0 | 12.0 | 0.00 | 0.00 | 0.00 | 41 | 1009.1 |
| 20260505150136 | 78 | 190 | 4.0 | 9.0 | 0.00 | 0.00 | 0.00 | 41 | 1009.2 |
| 20260505130136 | 69 | 203 | 0.0 | 8.0 | 0.00 | 0.00 | 0.00 | 54 | 1010.1 |
| 20260505124136 | 68 | 226 | 0.0 | 9.0 | 0.00 | 0.00 | 0.00 | 56 | 1010.1 |
| 20260505123136 | 67 | 217 | 1.0 | 3.0 | 0.00 | 0.00 | 0.00 | 57 | 1010.1 |
| 20260505122136 | 66 | 187 | 2.0 | 6.0 | 0.00 | 0.00 | 0.00 | 59 | 1009.6 |
| 20260505121136 | 65 | 190 | 0.0 | 7.0 | 0.00 | 0.00 | 0.00 | 62 | 1009.8 |
| 20260505120136 | 64 | 282 | 0.0 | 6.0 | 0.00 | 0.00 | 0.00 | 63 | 1009.6 |
| 20260505115136 | 63 | 196 | 0.0 | 7.0 | 0.00 | 0.00 | 0.00 | 66 | 1009.7 |
| 20260505113136 | 58 | 178 | 0.0 | 0.0 | 0.00 | 0.00 | 0.00 | 80 | 1009.7 |
| 20260505112938 | 56 | 180 | 0.0 | 0.0 | 0.00 | 0.00 | 0.00 | 83 | 1009.5 |
| 20260505020145 | 64 | 146 | 0.0 | 0.0 | 0.00 | 0.00 | 0.00 | 48 | 1008.9 |
| 20260505015143 | 64 | 146 | 0.0 | 4.0 | 0.00 | 0.00 | 0.00 | 48 | 1008.9 |
| 20260505014143 | 64 | 165 | 0.0 | 4.0 | 0.00 | 0.00 | 0.00 | 48 | 1008.9 |
| 20260505013143 | 64 | 141 | 0.0 | 0.0 | 0.00 | 0.00 | 0.00 | 47 | 1008.9 |
| 20260505012143 | 64 | 197 | 0.0 | 0.0 | 0.00 | 0.00 | 0.00 | 47 | 1008.9 |
| 20260505011143 | 65 | 197 | 0.0 | 0.0 | 0.00 | 0.00 | 0.00 | 46 | 1008.7 |
| 20260505010143 | 65 | 197 | 0.0 | 0.0 | 0.00 | 0.00 | 0.00 | 48 | 1008.5 |
| 20260505005143 | 66 | 197 | 0.0 | 0.0 | 0.00 | 0.00 | 0.00 | 44 | 1008.4 |
| 20260505004143 | 66 | 197 | 0.0 | 0.0 | 0.00 | 0.00 | 0.00 | 43 | 1008.3 |
| 20260505003143 | 67 | 197 | 0.0 | 0.0 | 0.00 | 0.00 | 0.00 | 42 | 1008.3 |
| 20260505002143 | 67 | 197 | 0.0 | 0.0 | 0.00 | 0.00 | 0.00 | 41 | 1008.3 |
| 20260505000143 | 68 | 197 | 0.0 | 6.0 | 0.00 | 0.00 | 0.00 | 40 | 1008.2 |
| 20260504235143 | 69 | 162 | 0.0 | 5.0 | 0.00 | 0.00 | 0.00 | 39 | 1008.1 |
| 20260504234144 | 69 | 194 | 5.0 | 8.0 | 0.00 | 0.00 | 0.00 | 38 | 1008.0 |
| 20260504233143 | 70 | 190 | 0.0 | 12.0 | 0.00 | 0.00 | 0.00 | 37 | 1007.9 |
| 20260504231143 | 71 | 174 | 0.0 | 11.0 | 0.00 | 0.00 | 0.00 | 36 | 1007.8 |
| 20260504230143 | 71 | 184 | 4.0 | 9.0 | 0.00 | 0.00 | 0.00 | 36 | 1007.8 |
| 20260504225144 | 71 | 205 | 3.0 | 14.0 | 0.00 | 0.00 | 0.00 | 36 | 1007.6 |
| 20260504224143 | 71 | 203 | 0.0 | 10.0 | 0.00 | 0.00 | 0.00 | 35 | 1007.6 |
| 20260504223143 | 72 | 185 | 6.0 | 9.0 | 0.00 | 0.00 | 0.00 | 36 | 1007.6 |
| 20260504222145 | 72 | 205 | 3.0 | 10.0 | 0.00 | 0.00 | 0.00 | 36 | 1007.7 |
| 20260504221143 | 72 | 192 | 0.0 | 13.0 | 0.00 | 0.00 | 0.00 | 35 | 1007.9 |
| 20260504220143 | 72 | 214 | 5.0 | 18.0 | 0.00 | 0.00 | 0.00 | 36 | 1007.8 |
| 20260504215143 | 72 | 161 | 6.0 | 12.0 | 0.00 | 0.00 | 0.00 | 36 | 1007.9 |
| 20260504214144 | 72 | 154 | 0.0 | 15.0 | 0.00 | 0.00 | 0.00 | 35 | 1007.9 |
| 20260504213143 | 73 | 202 | 0.0 | 11.0 | 0.00 | 0.00 | 0.00 | 35 | 1007.9 |
| 20260504212143 | 72 | 151 | 0.0 | 9.0 | 0.00 | 0.00 | 0.00 | 36 | 1008.0 |
| 20260504211143 | 73 | 321 | 0.0 | 12.0 | 0.00 | 0.00 | 0.00 | 37 | 1008.0 |
| 20260504210143 | 73 | 182 | 4.0 | 8.0 | 0.00 | 0.00 | 0.00 | 36 | 1007.9 |
| 20260504204144 | 73 | 176 | 1.0 | 10.0 | 0.00 | 0.00 | 0.00 | 34 | 1008.1 |
| 20260504203144 | 73 | 239 | 0.0 | 14.0 | 0.00 | 0.00 | 0.00 | 34 | 1008.1 |
| 20260504202143 | 73 | 162 | 2.0 | 14.0 | 0.00 | 0.00 | 0.00 | 34 | 1008.1 |
| 20260504200143 | 73 | 193 | 0.0 | 14.0 | 0.00 | 0.00 | 0.00 | 35 | 1008.3 |
| 20260504195143 | 73 | 194 | 4.0 | 12.0 | 0.00 | 0.00 | 0.00 | 33 | 1008.5 |
| 20260504194143 | 74 | 260 | 0.0 | 15.0 | 0.00 | 0.00 | 0.00 | 35 | 1008.5 |
| 20260504193143 | 72 | 188 | 15.0 | 15.0 | 0.00 | 0.00 | 0.00 | 36 | 1008.4 |
| 20260504192143 | 73 | 182 | 3.0 | 16.0 | 0.00 | 0.00 | 0.00 | 33 | 1008.7 |
| 20260504191143 | 74 | 271 | 3.0 | 11.0 | 0.00 | 0.00 | 0.00 | 32 | 1008.7 |
| 20260504190344 | 59 | 225 | 1.0 | 12.0 | 0.00 | 0.00 | 0.00 | 55 | 1012.6 |